| time (UTC) | temp C | wind direction | speed KPH | gust KPH | rain 1hr cm | rain 24hr cm | rain mn cm | humidity % | barometer mb |
| 20260507154551 | 13 | 284 | 3.2 | 16.1 | 0.00 | 0.00 | 0.00 | 66 | 1014.7 |
| 20260507153045 | 15 | 256 | 3.2 | 9.7 | 0.00 | 0.00 | 0.00 | 62 | 1014.6 |
| 20260507151547 | 14 | 258 | 4.8 | 14.5 | 0.00 | 0.00 | 0.00 | 68 | 1014.6 |
| 20260507150047 | 14 | 248 | 3.2 | 11.3 | 0.00 | 0.00 | 0.00 | 64 | 1014.8 |
| 20260507144559 | 13 | 303 | 6.4 | 16.1 | 0.00 | 0.00 | 0.00 | 68 | 1015.0 |
| 20260507143059 | 13 | 276 | 4.8 | 12.9 | 0.00 | 0.00 | 0.00 | 70 | 1015.1 |
| 20260507141610 | 14 | 327 | 3.2 | 11.3 | 0.00 | 0.00 | 0.00 | 65 | 1015.3 |
| 20260507140057 | 14 | 262 | 4.8 | 12.9 | 0.00 | 0.00 | 0.00 | 66 | 1015.3 |
| 20260507134553 | 14 | 257 | 1.6 | 16.1 | 0.00 | 0.00 | 0.00 | 67 | 1015.3 |
| 20260507133054 | 13 | 285 | 3.2 | 9.7 | 0.00 | 0.00 | 0.00 | 68 | 1015.3 |
| 20260507131557 | 13 | 285 | 4.8 | 12.9 | 0.00 | 0.00 | 0.00 | 66 | 1015.3 |
| 20260507130052 | 13 | 306 | 3.2 | 11.3 | 0.00 | 0.00 | 0.00 | 66 | 1015.4 |
| 20260507124554 | 13 | 289 | 4.8 | 11.3 | 0.00 | 0.00 | 0.00 | 69 | 1015.3 |
| 20260507123051 | 13 | 259 | 4.8 | 14.5 | 0.00 | 0.00 | 0.00 | 69 | 1015.6 |
| 20260507121550 | 13 | 233 | 4.8 | 16.1 | 0.00 | 0.00 | 0.00 | 68 | 1015.6 |
| 20260507120050 | 13 | 281 | 3.2 | 12.9 | 0.00 | 0.00 | 0.00 | 66 | 1015.6 |
| 20260507114557 | 13 | 254 | 4.8 | 11.3 | 0.00 | 0.00 | 0.00 | 72 | 1015.6 |
| 20260507113044 | 13 | 240 | 1.6 | 14.5 | 0.00 | 0.00 | 0.00 | 72 | 1015.5 |
| 20260507111558 | 13 | 177 | 4.8 | 12.9 | 0.00 | 0.00 | 0.00 | 73 | 1015.5 |
| 20260507110050 | 13 | 283 | 4.8 | 12.9 | 0.00 | 0.00 | 0.00 | 76 | 1015.5 |
| 20260507104551 | 13 | 295 | 6.4 | 14.5 | 0.00 | 0.00 | 0.00 | 81 | 1015.6 |
| 20260507103045 | 13 | 214 | 1.6 | 11.3 | 0.00 | 0.00 | 0.00 | 80 | 1015.5 |
| 20260507101601 | 12 | 302 | 4.8 | 12.9 | 0.00 | 0.00 | 0.00 | 80 | 1015.5 |
| 20260507100047 | 12 | 257 | 3.2 | 12.9 | 0.00 | 0.00 | 0.00 | 81 | 1015.6 |
| 20260507094545 | 12 | 257 | 4.8 | 9.7 | 0.00 | 0.00 | 0.00 | 84 | 1015.4 |
| 20260507093048 | 12 | 354 | 3.2 | 11.3 | 0.00 | 0.00 | 0.00 | 84 | 1015.3 |
| 20260507091548 | 12 | 300 | 3.2 | 11.3 | 0.00 | 0.00 | 0.00 | 87 | 1015.4 |
| 20260507090048 | 11 | 186 | 1.6 | 6.4 | 0.00 | 0.00 | 0.00 | 91 | 1015.3 |
| 20260507084547 | 11 | 265 | 3.2 | 8.0 | 0.00 | 0.05 | 0.00 | 92 | 1015.4 |
| 20260507083047 | 10 | 297 | 0.0 | 4.8 | 0.00 | 0.05 | 0.00 | 92 | 1015.5 |
| 20260507081550 | 10 | 276 | 1.6 | 4.8 | 0.00 | 0.05 | 0.00 | 92 | 1015.4 |
| 20260507080050 | 10 | 292 | 0.0 | 6.4 | 0.00 | 0.05 | 0.00 | 91 | 1015.4 |
| 20260507074555 | 10 | 267 | 0.0 | 4.8 | 0.00 | 0.08 | 0.00 | 93 | 1015.4 |
| 20260507073048 | 9 | 316 | 0.0 | 3.2 | 0.00 | 0.08 | 0.00 | 93 | 1015.3 |
| 20260507071546 | 9 | 294 | 0.0 | 3.2 | 0.00 | 0.08 | 0.00 | 94 | 1015.1 |
| 20260507070049 | 8 | 332 | 0.0 | 1.6 | 0.00 | 0.08 | 0.00 | 94 | 1015.0 |
| 20260507064602 | 8 | 0 | 0.0 | 3.2 | 0.00 | 0.08 | 0.00 | 94 | 1014.9 |
| 20260507063053 | 8 | 0 | 0.0 | 0.0 | 0.00 | 0.08 | 0.00 | 95 | 1014.8 |
| 20260507061546 | 7 | 0 | 0.0 | 0.0 | 0.00 | 0.08 | 0.00 | 95 | 1014.8 |
| 20260507060051 | 7 | 0 | 0.0 | 0.0 | 0.00 | 0.08 | 0.00 | 95 | 1014.7 |
| 20260507054545 | 7 | 0 | 0.0 | 0.0 | 0.00 | 0.08 | 0.00 | 95 | 1014.7 |
| 20260507053055 | 7 | 0 | 0.0 | 0.0 | 0.00 | 0.08 | 0.00 | 95 | 1014.7 |
| 20260507051551 | 6 | 0 | 0.0 | 0.0 | 0.00 | 0.08 | 0.00 | 95 | 1014.7 |
| 20260507050053 | 6 | 0 | 0.0 | 0.0 | 0.00 | 0.08 | 0.00 | 95 | 1014.7 |
| 20260507044547 | 6 | 0 | 0.0 | 0.0 | 0.00 | 0.08 | 0.00 | 94 | 1014.8 |
| 20260507043059 | 6 | 0 | 0.0 | 0.0 | 0.00 | 0.08 | 0.00 | 94 | 1014.6 |
| 20260507041553 | 6 | 0 | 0.0 | 0.0 | 0.00 | 0.08 | 0.00 | 94 | 1014.5 |
| 20260507040056 | 6 | 0 | 0.0 | 0.0 | 0.00 | 0.08 | 0.00 | 93 | 1014.5 |
| 20260507034555 | 6 | 0 | 0.0 | 0.0 | 0.00 | 0.08 | 0.00 | 93 | 1014.5 |
| 20260507033050 | 6 | 0 | 0.0 | 0.0 | 0.00 | 0.08 | 0.00 | 92 | 1014.4 |
| 20260507031552 | 6 | 0 | 0.0 | 0.0 | 0.00 | 0.08 | 0.00 | 91 | 1014.3 |
| 20260507030049 | 7 | 0 | 0.0 | 1.6 | 0.00 | 0.08 | 0.00 | 90 | 1014.2 |
| 20260507024551 | 7 | 0 | 0.0 | 1.6 | 0.00 | 0.08 | 0.00 | 90 | 1014.3 |
| 20260507023108 | 7 | 0 | 0.0 | 0.0 | 0.00 | 0.08 | 0.00 | 89 | 1014.3 |
| 20260507021554 | 7 | 0 | 0.0 | 0.0 | 0.00 | 0.08 | 0.00 | 89 | 1014.2 |
| 20260507020047 | 7 | 0 | 0.0 | 0.0 | 0.00 | 0.08 | 0.00 | 89 | 1014.2 |
| 20260507014558 | 8 | 0 | 0.0 | 0.0 | 0.00 | 0.08 | 0.00 | 88 | 1014.2 |
| 20260507013108 | 8 | 0 | 0.0 | 0.0 | 0.00 | 0.08 | 0.00 | 89 | 1014.3 |
| 20260507011545 | 8 | 0 | 0.0 | 0.0 | 0.00 | 0.08 | 0.00 | 89 | 1014.3 |
| 20260507010044 | 8 | 0 | 0.0 | 0.0 | 0.00 | 0.08 | 0.00 | 88 | 1014.3 |
| 20260507004542 | 8 | 0 | 0.0 | 0.0 | 0.00 | 0.08 | 0.00 | 88 | 1014.5 |
| 20260507003047 | 8 | 0 | 0.0 | 0.0 | 0.00 | 0.08 | 0.00 | 88 | 1014.4 |
| 20260507001607 | 8 | 0 | 0.0 | 0.0 | 0.00 | 0.08 | 0.00 | 88 | 1014.5 |
| 20260507000049 | 8 | 0 | 0.0 | 0.0 | 0.00 | 0.08 | 0.00 | 88 | 1014.7 |
| 20260506234546 | 8 | 0 | 0.0 | 0.0 | 0.00 | 0.08 | 0.00 | 88 | 1014.6 |
| 20260506233047 | 8 | 0 | 0.0 | 1.6 | 0.00 | 0.08 | 0.00 | 88 | 1014.5 |
| 20260506231551 | 8 | 0 | 0.0 | 0.0 | 0.00 | 0.08 | 0.00 | 88 | 1014.6 |
| 20260506230051 | 8 | 0 | 0.0 | 0.0 | 0.00 | 0.08 | 0.00 | 89 | 1014.6 |
| 20260506224550 | 8 | 0 | 0.0 | 0.0 | 0.00 | 0.08 | 0.08 | 88 | 1014.7 |
| 20260506223104 | 8 | 0 | 0.0 | 0.0 | 0.00 | 0.08 | 0.08 | 88 | 1014.6 |
| 20260506221545 | 8 | 0 | 0.0 | 0.0 | 0.00 | 0.08 | 0.08 | 87 | 1014.6 |
| 20260506220045 | 8 | 0 | 0.0 | 0.0 | 0.00 | 0.08 | 0.08 | 88 | 1014.5 |
| 20260506214544 | 8 | 0 | 0.0 | 0.0 | 0.00 | 0.08 | 0.08 | 87 | 1014.5 |
| 20260506213049 | 9 | 0 | 0.0 | 0.0 | 0.00 | 0.08 | 0.08 | 86 | 1014.5 |
| 20260506211547 | 9 | 0 | 0.0 | 0.0 | 0.00 | 0.08 | 0.08 | 86 | 1014.6 |
| 20260506210047 | 9 | 0 | 0.0 | 0.0 | 0.00 | 0.08 | 0.08 | 86 | 1014.5 |
| 20260506204552 | 9 | 0 | 0.0 | 0.0 | 0.00 | 0.08 | 0.08 | 85 | 1014.4 |
| 20260506203050 | 9 | 0 | 0.0 | 0.0 | 0.00 | 0.08 | 0.08 | 84 | 1014.4 |
| 20260506201545 | 10 | 0 | 0.0 | 1.6 | 0.00 | 0.08 | 0.08 | 84 | 1014.3 |
| 20260506200130 | 10 | 0 | 0.0 | 1.6 | 0.00 | 0.08 | 0.08 | 85 | 1014.2 |
| 20260506194555 | 10 | 0 | 0.0 | 1.6 | 0.00 | 0.08 | 0.08 | 84 | 1014.1 |
| 20260506193054 | 10 | 0 | 0.0 | 3.2 | 0.00 | 0.08 | 0.08 | 85 | 1014.0 |
| 20260506191548 | 10 | 239 | 0.0 | 3.2 | 0.00 | 0.08 | 0.08 | 84 | 1014.0 |
| 20260506190045 | 10 | 249 | 0.0 | 6.4 | 0.00 | 0.08 | 0.08 | 83 | 1013.9 |
| 20260506184553 | 11 | 275 | 3.2 | 6.4 | 0.00 | 0.08 | 0.08 | 82 | 1013.9 |
| 20260506183047 | 11 | 217 | 1.6 | 3.2 | 0.00 | 0.08 | 0.08 | 78 | 1013.8 |
| 20260506181552 | 11 | 0 | 0.0 | 0.0 | 0.00 | 0.08 | 0.08 | 74 | 1013.8 |
| 20260506180052 | 11 | 0 | 0.0 | 0.0 | 0.00 | 0.08 | 0.08 | 75 | 1013.7 |
| 20260506174547 | 12 | 0 | 0.0 | 0.0 | 0.00 | 0.08 | 0.08 | 74 | 1013.6 |
| 20260506173048 | 12 | 0 | 0.0 | 3.2 | 0.00 | 0.08 | 0.08 | 72 | 1013.6 |
| 20260506171558 | 12 | 309 | 0.0 | 1.6 | 0.00 | 0.08 | 0.08 | 72 | 1013.5 |
| 20260506170053 | 12 | 308 | 0.0 | 3.2 | 0.00 | 0.08 | 0.08 | 68 | 1013.4 |
| 20260506164549 | 13 | 286 | 0.0 | 4.8 | 0.00 | 0.08 | 0.08 | 71 | 1013.3 |
| 20260506163051 | 13 | 277 | 0.0 | 3.2 | 0.00 | 0.08 | 0.08 | 66 | 1013.4 |
| 20260506161556 | 13 | 0 | 0.0 | 1.6 | 0.00 | 0.08 | 0.08 | 62 | 1013.4 |
| 20260506160046 | 13 | 0 | 0.0 | 1.6 | 0.00 | 0.08 | 0.08 | 63 | 1013.4 |